This is the latest recevied weather packets stored in our database for station/object KD8PH. If no packets are shown the sender has not sent any weather packets the latest 10 day(s).
| Time | Temp. | Humidity | Pressure | Rain* | Wind** | Luminosity | Snow |
|---|---|---|---|---|---|---|---|
| 1777652153 | 15.56° C | 62% | 1013.7 hPa | 0.25 mm | - | - | - |
| 1777651538 | 15.56° C | 66% | 1013.8 hPa | 0.25 mm | - | - | - |
| 1777650937 | 16.11° C | 68% | 1014.1 hPa | 0.25 mm | - | - | - |
| 1777650342 | 15.56° C | 69% | 1014.3 hPa | 0.25 mm | - | - | - |
| 1777649736 | 15.56° C | 70% | 1014.4 hPa | 0.51 mm | - | - | - |
| 1777649141 | 15° C | 72% | 1014.1 hPa | 0.25 mm | - | - | - |
| 1777647936 | 15° C | 69% | 1013.9 hPa | 0.25 mm | - | - | - |
| 1777647336 | 15° C | 69% | 1014 hPa | 0.25 mm | - | - | - |
| 1777646744 | 15° C | 67% | 1014.3 hPa | 0.25 mm | - | - | - |
| 1777646148 | 14.44° C | 71% | 1014 hPa | 0.25 mm | - | - | - |
| 1777645559 | 14.44° C | 67% | 1013.9 hPa | 0.25 mm | - | - | - |
| 1777644960 | 13.89° C | 69% | 1013.9 hPa | 0.25 mm | - | - | - |
| 1777644340 | 13.89° C | 66% | 1014 hPa | 0.25 mm | - | - | - |
| 1777643748 | 13.89° C | 69% | 1014.2 hPa | 0.25 mm | - | - | - |
| 1777643148 | 13.89° C | 69% | 1014 hPa | 0.51 mm | - | - | - |
| 1777642538 | 13.89° C | 69% | 1013.7 hPa | 0.25 mm | - | - | - |
| 1777641936 | 13.89° C | 69% | 1013.5 hPa | 0.25 mm | - | - | - |
| 1777641335 | 13.33° C | 70% | 1013.7 hPa | 0.25 mm | - | - | - |
| 1777640739 | 12.78° C | 76% | 1013.4 hPa | 0.25 mm | - | - | - |
| 1777640136 | 12.78° C | 76% | 1013.3 hPa | 0.25 mm | - | - | - |
| 1777639536 | 12.78° C | 77% | 1013.4 hPa | 0.25 mm | - | - | - |
| 1777638936 | 12.22° C | 73% | 1013.5 hPa | 0.25 mm | - | - | - |
| 1777638336 | 12.22° C | 73% | 1013.5 hPa | 0.25 mm | - | - | - |
| 1777637736 | 12.22° C | 74% | 1013.6 hPa | 0.25 mm | - | - | - |
| 1777637135 | 11.67° C | 73% | 1013.4 hPa | 0.25 mm | - | - | - |
* Rain latest hour (hover to see other rain measurements)
** Current wind speed in m/s (hover to see current wind gust speed)